This is the latest recevied weather packets stored in our database for station/object K6GMW. If no packets are shown the sender has not sent any weather packets the latest 10 day(s).
| Time | Temp. | Humidity | Pressure | Rain* | Wind** | Luminosity | Snow |
|---|---|---|---|---|---|---|---|
| 1777328766 | 30.56° C | 67% | 1009.8 hPa | 0 mm | - | 333 W/m² | - |
| 1777328463 | 30.56° C | 67% | 1009.8 hPa | 0 mm | - | 337 W/m² | - |
| 1777328162 | 30.56° C | 70% | 1010 hPa | 0 mm | - | 371 W/m² | - |
| 1777327860 | 30.56° C | 68% | 1009.8 hPa | 0 mm | - | 372 W/m² | - |
| 1777327557 | 30.56° C | 69% | 1009.8 hPa | 0 mm | - | 390 W/m² | - |
| 1777327255 | 30.56° C | 69% | 1009.8 hPa | 0 mm | - | 409 W/m² | - |
| 1777326951 | 30° C | 71% | 1009.8 hPa | 0 mm | - | 427 W/m² | - |
| 1777326649 | 30° C | 71% | 1009.7 hPa | 0 mm | - | 203 W/m² | - |
| 1777326345 | 30° C | 71% | 1009.7 hPa | 0 mm | - | 152 W/m² | - |
| 1777326043 | 30° C | 70% | 1010 hPa | 0 mm | - | 264 W/m² | - |
| 1777325741 | 30° C | 71% | 1010 hPa | 0 mm | - | 438 W/m² | - |
| 1777325439 | 30° C | 70% | 1009.8 hPa | 0 mm | - | 176 W/m² | - |
| 1777325137 | 30° C | 71% | 1010.1 hPa | 0 mm | - | 396 W/m² | - |
| 1777324833 | 30° C | 69% | 1010 hPa | 0 mm | - | 208 W/m² | - |
| 1777324531 | 30° C | 71% | 1010.1 hPa | 0 mm | - | 454 W/m² | - |
| 1777324228 | 30° C | 70% | 1010 hPa | 0 mm | - | 249 W/m² | - |
| 1777323926 | 30.56° C | 69% | 1009.8 hPa | 0 mm | - | 378 W/m² | - |
| 1777323622 | 30.56° C | 69% | 1009.6 hPa | 0 mm | - | 717 W/m² | - |
| 1777323320 | 30.56° C | 69% | 1010 hPa | 0 mm | - | 693 W/m² | - |
| 1777323018 | 30.56° C | 68% | 1009.8 hPa | 0 mm | - | 534 W/m² | - |
| 1777322715 | 30.56° C | 67% | 1010 hPa | 0 mm | - | 281 W/m² | - |
| 1777322413 | 30.56° C | 68% | 1010.1 hPa | 0 mm | - | 770 W/m² | - |
| 1777322109 | 30.56° C | 67% | 1010.2 hPa | 0 mm | - | 301 W/m² | - |
| 1777321806 | 30.56° C | 66% | 1010.2 hPa | 0 mm | - | 468 W/m² | - |
| 1777321503 | 31.11° C | 67% | 1010.2 hPa | 0 mm | - | 821 W/m² | - |
* Rain latest hour (hover to see other rain measurements)
** Current wind speed in m/s (hover to see current wind gust speed)